Location: Aranbee
(34.0885°N, 118.2342°W)
Time: 23:04:40
(UTC+00:00)

Tiros 1 - Pass Details

Date: 27 November 2020
Orbit: 630 x 663 km, 48.4° (Epoch: 20 January)

Event Time Altitude Azimuth Distance (km) Brightness Sun altitude
Rises 06:32:28 0° 305° (NW) 2,962 - -70.2°
Reaches altitude 10° 06:34:50 10° 303° (WNW) 2,044 - -70.6°
Maximum altitude 06:39:30 65° 222° (SW) 703 - -71.4°
Drops below altitude 10° 06:44:05 10° 140° (SE) 2,014 - -72.1°
Sets 06:46:24 0° 138° (SE) 2,915 - -72.4°
